Seeley, CA

4:01 AM PST on February 11, 2016 (GMT -0800)
El Centro Naval Air Facility

Weather History for KNJK - March, 2013

Change the Weather History Date:

Saturday, March 2, 2013

  Actual Average Record
Temperature  
Mean Temperature 66 °F -  
Max Temperature 84 °F 71 °F 89 °F (2009)
Min Temperature 48 °F 48 °F 37 °F (2007)
Cooling Degree Days 1    
Growing Degree Days 16 (Base 50)    
Moisture  
Dew Point 27 °F    
Average Humidity 23    
Maximum Humidity 36    
Minimum Humidity 12    
Precipitation  
Precipitation 0.00 in - - ()
Sea Level Pressure  
Sea Level Pressure 30.18 in    
Wind  
Wind Speed 4 mph (WSW)    
Max Wind Speed 8 mph    
Max Gust Speed -    
Visibility 10 miles    
Events      
Averages and records for this station are not official NWS values.
T = Trace of Precipitation, MM = Missing Value Source: NWS Daily Summary

Daily Weather History Graph

Daily Weather History Graph

Search for Another Location

Airport or City:

Trip Planner

Search our weather history database for the weather conditions in past years. The results will help you decide how hot, cold, wet, or windy it might be!

Date:

Astronomy

Mar. 02, 2013 Rise Set
Actual Time 6:08 AM PST 5:41 PM PST
Civil Twilight 5:44 AM PST 6:05 PM PST
Nautical Twilight 5:15 AM PST 6:34 PM PST
Astronomical Twilight 4:47 AM PST 7:02 PM PST
Moon 11:04 PM PST (3/2) 8:59 AM PST (3/2)
Length of Visible Light 12h 21m
Length of Day
11h 32m
Waning Gibbous, 73% of the Moon is Illuminated
Mar 2
Waning Gibbous
Mar 4
Last Quarter
Mar 11
New
Mar 19
First Quarter
Mar 27
Full

Hourly Weather History & Observations

Time (PST) Temp. Dew Point Humidity Pressure Visibility Wind Dir Wind Speed Gust Speed Precip Events Conditions
12:56 AM 55.0 °F 19.0 °F 24% 30.26 in 10.0 mi West 4.6 mph - N/A   Clear
1:56 AM 54.0 °F 21.0 °F 28% 30.25 in 10.0 mi WSW 8.1 mph - N/A   Clear
2:56 AM 52.0 °F 21.9 °F 31% 30.25 in 10.0 mi WSW 4.6 mph - N/A   Clear
3:56 AM 52.0 °F 19.9 °F 28% 30.25 in 10.0 mi West 3.5 mph - N/A   Clear
4:56 AM 50.0 °F 23.0 °F 35% 30.25 in 10.0 mi West 6.9 mph - N/A   Clear
5:56 AM 48.9 °F 23.0 °F 36% 30.26 in 10.0 mi West 4.6 mph - N/A   Clear
6:56 AM 52.0 °F 23.0 °F 32% 30.27 in 10.0 mi WSW 4.6 mph - N/A   Clear
7:56 AM 57.0 °F 30.0 °F 36% 30.28 in 10.0 mi WSW 3.5 mph - N/A   Clear
8:56 AM 68.0 °F 27.0 °F 21% 30.28 in 10.0 mi WNW 3.5 mph - N/A   Clear
9:56 AM 73.9 °F 27.0 °F 18% 30.27 in 10.0 mi Calm Calm - N/A   Clear
10:15 AM 75.2 °F 28.4 °F 18% 30.22 in 1.8 mi Calm Calm - N/A   Haze
10:25 AM 77.0 °F 26.6 °F 16% 30.22 in 4.0 mi Calm Calm - N/A   Haze
10:56 AM 79.0 °F 28.0 °F 15% 30.25 in 10.0 mi Calm Calm - N/A   Clear
11:56 AM 82.0 °F 27.0 °F 13% 30.22 in 10.0 mi Calm Calm - N/A   Clear
12:56 PM 82.9 °F 26.1 °F 13% 30.18 in 10.0 mi SE 5.8 mph - N/A   Clear
1:56 PM 84.0 °F 26.1 °F 12% 30.15 in 10.0 mi Variable 6.9 mph - N/A   Clear
2:56 PM 84.0 °F 26.1 °F 12% 30.12 in 10.0 mi Variable 3.5 mph - N/A   Clear
3:56 PM 84.0 °F 28.9 °F 14% 30.10 in 10.0 mi Calm Calm - N/A   Clear
4:56 PM 82.9 °F 30.9 °F 15% 30.09 in 10.0 mi Calm Calm - N/A   Clear
5:56 PM 73.9 °F 34.0 °F 23% 30.08 in 10.0 mi East 3.5 mph - N/A   Clear
6:56 PM 73.0 °F 33.1 °F 23% 30.08 in 10.0 mi Calm Calm - N/A   Clear
7:56 PM 66.9 °F 33.1 °F 28% 30.09 in 10.0 mi Calm Calm - N/A   Clear
8:56 PM 61.0 °F 30.0 °F 31% 30.10 in 10.0 mi WSW 8.1 mph - N/A   Clear
9:56 PM 60.1 °F 30.9 °F 33% 30.09 in 10.0 mi WSW 4.6 mph - N/A   Clear
10:56 PM 64.9 °F 25.0 °F 22% 30.09 in 10.0 mi West 5.8 mph - N/A   Clear
11:56 PM 60.1 °F 21.9 °F 23% 30.08 in 10.0 mi Calm Calm - N/A   Clear